QPF
0.00 0.00 0.00 0.00 0.00 0.00 0.00 0.00 0.00 0.00 0.00 0.01 0.01 0.01 0.02 0.04 0.05 0.03 0.01 0.01 0.02 0.01 0.01 0.01 0.00 0.00 0.00 0.00 0.00 0.00 0.00 0.01 0.01 0.02 0.03 0.03 0.04 0.05 0.04 0.03 0.02 0.01 0.02 0.02
0.00 0.00 0.00 0.00 0.00 0.00 0.00 0.00 0.00 0.00 0.00 0.01 0.01 0.02 0.02 0.03 0.04 0.03 0.02 0.01 0.01 0.01 0.01 0.01 0.01 0.01 0.00 0.00 0.00 0.00 0.00 0.00 0.01 0.03 0.05 0.04 0.04 0.05 0.04 0.02 0.01 0.01 0.01 0.01
0.00 0.00 0.00 0.00 0.00 0.00 0.00 0.00 0.00 0.00 0.00 0.01 0.02 0.03 0.02 0.02 0.04 0.06 0.04 0.04 0.02 0.01 0.01 0.02 0.03 0.01 0.00 0.00 0.00 0.00 0.00 0.00 0.01 0.02 0.03 0.02 0.03 0.03 0.02 0.01 0.01 0.02 0.01 0.01
0.00 0.00 0.00 0.00 0.00 0.00 0.00 0.00 0.00 0.00 0.00 0.01 0.01 0.03 0.03 0.02 0.03 0.08 0.09 0.07 0.04 0.02 0.01 0.01 0.01 0.00 0.00 0.00 0.00 0.00 0.00 0.01 0.01 0.01 0.01 0.01 0.02 0.02 0.02 0.03 0.04 0.06 0.05 0.04
0.00 0.00 0.00 0.00 0.00 0.00 0.00 0.00 0.00 0.00 0.00 0.01 0.01 0.01 0.01 0.02 0.02 0.05 0.09 0.08 0.06 0.03 0.02 0.01 0.01 0.00 0.00 0.00 0.00 0.01 0.02 0.01 0.01 0.02 0.02 0.03 0.03 0.04 0.05 0.04 0.05 0.04 0.03 0.04
0.00 0.00 0.00 0.00 0.00 0.00 0.00 0.00 0.00 0.00 0.00 0.00 0.01 0.02 0.01 0.01 0.01 0.04 0.06 0.04 0.05 0.02 0.01 0.01 0.01 0.01 0.01 0.02 0.03 0.04 0.05 0.03 0.02 0.02 0.03 0.03 0.04 0.05 0.04 0.03 0.03 0.02 0.03 0.02
0.00 0.00 0.00 0.00 0.00 0.00 0.00 0.00 0.00 0.00 0.00 0.00 0.00 0.01 0.01 0.01 0.02 0.04 0.04 0.04 0.03 0.02 0.01 0.01 0.02 0.03 0.03 0.04 0.06 0.13 0.16 0.10 0.05 0.03 0.02 0.02 0.03 0.04 0.03 0.03 0.03 0.02 0.02 0.02
0.00 0.00 0.00 0.00 0.00 0.00 0.00 0.00 0.00 0.00 0.00 0.00 0.00 0.01 0.08 0.08 0.05 0.03 0.03 0.03 0.02 0.02 0.02 0.02 0.02 0.02 0.02 0.03 0.04 0.06 0.08 0.08 0.08 0.04 0.02 0.04 0.04 0.04 0.04 0.03 0.02 0.02 0.02 0.02
0.00 0.00 0.00 0.00 0.00 0.00 0.00 0.00 0.00 0.00 0.00 0.00 0.00 0.02 0.07 0.08 0.05 0.05 0.03 0.02 0.02 0.03 0.03 0.04 0.03 0.02 0.03 0.04 0.04 0.04 0.06 0.05 0.04 0.03 0.03 0.04 0.04 0.03 0.03 0.03 0.02 0.01 0.02 0.02
0.00 0.00 0.00 0.00 0.00 0.00 0.00 0.00 0.00 0.00 0.00 0.00 0.01 0.02 0.03 0.03 0.04 0.02 0.02 0.02 0.02 0.03 0.04 0.07 0.08 0.06 0.06 0.06 0.04 0.03 0.03 0.03 0.02 0.03 0.04 0.05 0.05 0.04 0.03 0.03 0.02 0.02 0.03 0.03
0.00 0.00 0.00 0.00 0.00 0.00 0.00 0.00 0.00 0.01 0.00 0.01 0.03 0.03 0.03 0.04 0.03 0.02 0.03 0.03 0.02 0.02 0.02 0.05 0.08 0.09 0.08 0.06 0.06 0.05 0.04 0.04 0.03 0.04 0.05 0.05 0.06 0.05 0.04 0.03 0.03 0.03 0.03 0.04
0.00 0.00 0.00 0.00 0.00 0.00 0.00 0.00 0.00 0.00 0.00 0.00 0.01 0.03 0.03 0.03 0.03 0.03 0.05 0.04 0.03 0.02 0.02 0.04 0.08 0.08 0.10 0.07 0.05 0.05 0.06 0.06 0.07 0.07 0.07 0.05 0.04 0.05 0.05 0.04 0.03 0.04 0.03 0.03
0.00 0.00 0.00 0.00 0.00 0.00 0.00 0.00 0.00 0.00 0.00 0.00 0.02 0.03 0.03 0.03 0.05 0.05 0.04 0.03 0.04 0.04 0.03 0.04 0.08 0.10 0.11 0.09 0.05 0.04 0.05 0.05 0.07 0.09 0.06 0.05 0.05 0.05 0.04 0.05 0.05 0.05 0.05 0.05
0.00 0.00 0.00 0.00 0.01 0.01 0.00 0.00 0.00 0.01 0.01 0.00 0.01 0.02 0.03 0.05 0.06 0.05 0.04 0.03 0.05 0.04 0.04 0.04 0.09 0.10 0.11 0.08 0.05 0.04 0.04 0.05 0.05 0.05 0.04 0.04 0.04 0.05 0.06 0.07 0.06 0.06 0.08 0.07
0.00 0.00 0.00 0.00 0.00 0.00 0.00 0.00 0.01 0.01 0.00 0.00 0.01 0.01 0.02 0.07 0.10 0.07 0.06 0.05 0.05 0.05 0.05 0.04 0.03 0.03 0.03 0.04 0.05 0.03 0.03 0.04 0.05 0.04 0.05 0.06 0.07 0.06 0.06 0.07 0.06 0.07 0.07 0.05
0.00 0.00 0.00 0.00 0.00 0.00 0.00 0.01 0.02 0.01 0.00 0.01 0.02 0.02 0.03 0.06 0.09 0.08 0.07 0.08 0.05 0.04 0.04 0.03 0.02 0.02 0.03 0.03 0.03 0.02 0.03 0.03 0.04 0.05 0.06 0.06 0.05 0.05 0.05 0.05 0.05 0.05 0.06 0.07
0.00 0.00 0.00 0.01 0.01 0.01 0.02 0.01 0.01 0.01 0.01 0.02 0.04 0.05 0.04 0.06 0.13 0.13 0.08 0.06 0.05 0.04 0.04 0.03 0.03 0.03 0.04 0.04 0.03 0.04 0.05 0.05 0.04 0.04 0.05 0.05 0.04 0.03 0.03 0.03 0.05 0.05 0.05 0.06
0.00 0.00 0.00 0.01 0.01 0.02 0.03 0.03 0.01 0.01 0.03 0.05 0.06 0.05 0.04 0.05 0.14 0.10 0.06 0.05 0.05 0.05 0.04 0.05 0.06 0.07 0.08 0.04 0.04 0.07 0.13 0.13 0.09 0.06 0.04 0.03 0.04 0.04 0.04 0.04 0.05 0.07 0.07 0.08
0.00 0.00 0.01 0.01 0.01 0.02 0.04 0.05 0.03 0.02 0.04 0.06 0.05 0.06 0.03 0.02 0.04 0.05 0.04 0.04 0.05 0.06 0.05 0.05 0.07 0.09 0.07 0.05 0.05 0.08 0.11 0.12 0.08 0.05 0.03 0.03 0.04 0.04 0.04 0.04 0.05 0.08 0.09 0.09
0.01 0.00 0.00 0.01 0.02 0.02 0.02 0.03 0.04 0.04 0.04 0.05 0.03 0.04 0.04 0.02 0.03 0.04 0.04 0.04 0.06 0.09 0.09 0.07 0.06 0.07 0.07 0.08 0.09 0.09 0.07 0.07 0.07 0.06 0.07 0.09 0.10 0.06 0.04 0.06 0.08 0.10 0.09 0.11
0.01 0.01 0.01 0.01 0.02 0.02 0.02 0.02 0.03 0.05 0.07 0.05 0.04 0.01 0.02 0.02 0.02 0.03 0.04 0.04 0.05 0.08 0.12 0.08 0.07 0.09 0.09 0.09 0.09 0.08 0.06 0.06 0.06 0.07 0.10 0.13 0.16 0.10 0.08 0.09 0.11 0.13 0.14 0.16
0.01 0.01 0.01 0.01 0.03 0.03 0.02 0.02 0.05 0.09 0.10 0.06 0.05 0.03 0.02 0.01 0.01 0.01 0.02 0.03 0.06 0.11 0.16 0.13 0.10 0.10 0.10 0.11 0.11 0.08 0.08 0.07 0.08 0.09 0.10 0.11 0.14 0.15 0.14 0.15 0.16 0.17 0.22 0.23
0.01 0.01 0.02 0.02 0.02 0.03 0.04 0.04 0.05 0.06 0.07 0.07 0.06 0.04 0.02 0.02 0.01 0.02 0.03 0.05 0.07 0.11 0.10 0.09 0.10 0.14 0.16 0.14 0.14 0.13 0.08 0.06 0.08 0.10 0.12 0.15 0.24 0.30 0.24 0.21 0.20 0.19 0.19 0.20
0.03 0.01 0.01 0.03 0.06 0.05 0.08 0.08 0.07 0.06 0.05 0.04 0.04 0.04 0.02 0.02 0.02 0.02 0.04 0.04 0.05 0.06 0.04 0.03 0.04 0.13 0.18 0.15 0.13 0.19 0.16 0.10 0.10 0.12 0.12 0.14 0.16 0.20 0.21 0.21 0.19 0.19 0.21 0.29
0.04 0.03 0.03 0.07 0.09 0.08 0.08 0.11 0.07 0.04 0.04 0.03 0.03 0.03 0.02 0.03 0.03 0.02 0.02 0.01 0.02 0.03 0.03 0.03 0.04 0.09 0.17 0.11 0.09 0.13 0.16 0.13 0.13 0.13 0.14 0.14 0.16 0.19 0.20 0.20 0.21 0.22 0.19 0.16
0.05 0.04 0.04 0.06 0.08 0.09 0.09 0.09 0.08 0.06 0.04 0.03 0.04 0.03 0.02 0.02 0.02 0.02 0.01 0.01 0.02 0.02 0.03 0.05 0.05 0.07 0.08 0.09 0.09 0.08 0.10 0.12 0.14 0.14 0.13 0.13 0.15 0.17 0.16 0.16 0.15 0.13 0.10 0.09
MSLP
1012.98 1013.69 1014.18 1014.44 1014.48 1014.35 1014.12 1013.82 1013.52 1013.23 1012.95 1012.68 1012.39 1012.08 1011.75 1011.43 1011.12 1010.88 1010.71 1010.64 1010.66 1010.76 1010.92 1011.12 1011.31 1011.51 1011.70 1011.90 1012.13 1012.41 1012.75 1013.15 1013.61 1014.08 1014.56 1014.98 1015.34 1015.62 1015.82 1015.96 1016.07 1016.17 1016.30 1016.48
1013.47 1013.94 1014.21 1014.29 1014.25 1014.15 1014.04 1013.96 1013.91 1013.86 1013.76 1013.58 1013.28 1012.85 1012.32 1011.72 1011.15 1010.66 1010.31 1010.13 1010.13 1010.27 1010.51 1010.80 1011.07 1011.31 1011.51 1011.69 1011.88 1012.11 1012.42 1012.83 1013.31 1013.85 1014.39 1014.88 1015.29 1015.60 1015.80 1015.91 1015.98 1016.05 1016.16 1016.33
1013.73 1013.93 1013.96 1013.89 1013.80 1013.77 1013.85 1014.04 1014.28 1014.51 1014.64 1014.56 1014.24 1013.67 1012.90 1012.01 1011.12 1010.34 1009.77 1009.46 1009.41 1009.58 1009.90 1010.29 1010.67 1010.98 1011.23 1011.41 1011.58 1011.79 1012.09 1012.50 1013.01 1013.59 1014.19 1014.74 1015.21 1015.54 1015.75 1015.86 1015.91 1015.95 1016.04 1016.22
1013.80 1013.74 1013.56 1013.38 1013.29 1013.38 1013.69 1014.18 1014.75 1015.27 1015.60 1015.63 1015.27 1014.54 1013.50 1012.27 1011.03 1009.93 1009.11 1008.63 1008.50 1008.68 1009.08 1009.58 1010.07 1010.49 1010.80 1011.03 1011.22 1011.43 1011.72 1012.13 1012.66 1013.28 1013.93 1014.53 1015.05 1015.42 1015.65 1015.76 1015.80 1015.84 1015.92 1016.10
1013.76 1013.48 1013.15 1012.90 1012.86 1013.11 1013.67 1014.47 1015.35 1016.15 1016.66 1016.76 1016.34 1015.42 1014.09 1012.51 1010.91 1009.47 1008.37 1007.70 1007.48 1007.65 1008.10 1008.70 1009.31 1009.84 1010.25 1010.55 1010.77 1011.00 1011.30 1011.72 1012.26 1012.90 1013.58 1014.23 1014.78 1015.19 1015.45 1015.57 1015.63 1015.66 1015.75 1015.92
1013.68 1013.25 1012.82 1012.57 1012.62 1013.05 1013.86 1014.93 1016.09 1017.10 1017.75 1017.87 1017.36 1016.25 1014.64 1012.73 1010.77 1009.02 1007.65 1006.78 1006.45 1006.58 1007.07 1007.75 1008.47 1009.11 1009.62 1009.98 1010.26 1010.51 1010.82 1011.25 1011.79 1012.44 1013.14 1013.81 1014.39 1014.83 1015.11 1015.27 1015.34 1015.38 1015.47 1015.65
1013.60 1013.09 1012.64 1012.44 1012.61 1013.21 1014.23 1015.52 1016.88 1018.04 1018.76 1018.86 1018.25 1016.95 1015.09 1012.90 1010.66 1008.63 1007.03 1005.99 1005.55 1005.65 1006.14 1006.87 1007.67 1008.39 1008.97 1009.40 1009.72 1010.00 1010.32 1010.73 1011.27 1011.91 1012.60 1013.28 1013.87 1014.34 1014.65 1014.82 1014.91 1014.98 1015.07 1015.25
1013.54 1013.02 1012.61 1012.50 1012.79 1013.54 1014.70 1016.13 1017.59 1018.81 1019.53 1019.58 1018.87 1017.43 1015.40 1013.01 1010.58 1008.37 1006.62 1005.46 1004.93 1004.98 1005.46 1006.20 1007.02 1007.79 1008.41 1008.88 1009.22 1009.50 1009.81 1010.20 1010.71 1011.33 1012.00 1012.66 1013.25 1013.73 1014.05 1014.25 1014.36 1014.45 1014.55 1014.73
1013.45 1013.00 1012.69 1012.67 1013.08 1013.92 1015.16 1016.63 1018.09 1019.28 1019.95 1019.93 1019.14 1017.62 1015.51 1013.06 1010.57 1008.30 1006.49 1005.28 1004.70 1004.69 1005.13 1005.84 1006.64 1007.39 1008.00 1008.46 1008.79 1009.06 1009.34 1009.70 1010.16 1010.73 1011.36 1012.00 1012.57 1013.04 1013.37 1013.59 1013.72 1013.82 1013.94 1014.13
1013.30 1012.97 1012.79 1012.89 1013.37 1014.25 1015.47 1016.88 1018.25 1019.34 1019.92 1019.83 1019.00 1017.49 1015.43 1013.04 1010.63 1008.43 1006.68 1005.48 1004.88 1004.83 1005.20 1005.83 1006.55 1007.22 1007.77 1008.18 1008.46 1008.69 1008.93 1009.24 1009.66 1010.17 1010.75 1011.34 1011.88 1012.33 1012.66 1012.88 1013.02 1013.14 1013.27 1013.46
1013.06 1012.89 1012.85 1013.06 1013.58 1014.44 1015.56 1016.82 1018.02 1018.95 1019.40 1019.26 1018.45 1017.03 1015.14 1012.96 1010.76 1008.76 1007.16 1006.05 1005.48 1005.38 1005.66 1006.17 1006.75 1007.29 1007.73 1008.04 1008.25 1008.41 1008.60 1008.86 1009.22 1009.68 1010.20 1010.73 1011.23 1011.65 1011.96 1012.18 1012.33 1012.45 1012.59 1012.79
1012.75 1012.76 1012.86 1013.15 1013.68 1014.45 1015.41 1016.46 1017.44 1018.17 1018.49 1018.31 1017.58 1016.33 1014.70 1012.83 1010.95 1009.24 1007.86 1006.89 1006.36 1006.22 1006.39 1006.73 1007.14 1007.51 1007.80 1007.99 1008.11 1008.22 1008.35 1008.57 1008.88 1009.28 1009.75 1010.22 1010.66 1011.03 1011.32 1011.51 1011.66 1011.78 1011.92 1012.12
1012.42 1012.61 1012.85 1013.19 1013.68 1014.32 1015.09 1015.89 1016.61 1017.13 1017.33 1017.13 1016.51 1015.49 1014.18 1012.68 1011.18 1009.81 1008.69 1007.88 1007.40 1007.21 1007.24 1007.40 1007.61 1007.79 1007.91 1007.98 1008.02 1008.07 1008.17 1008.36 1008.63 1008.99 1009.40 1009.81 1010.19 1010.51 1010.75 1010.91 1011.04 1011.15 1011.29 1011.48
1012.16 1012.51 1012.86 1013.23 1013.66 1014.15 1014.69 1015.23 1015.69 1016.00 1016.09 1015.89 1015.40 1014.63 1013.65 1012.55 1011.44 1010.41 1009.55 1008.89 1008.44 1008.19 1008.08 1008.05 1008.04 1008.04 1008.01 1007.97 1007.94 1007.95 1008.04 1008.21 1008.47 1008.79 1009.15 1009.50 1009.82 1010.07 1010.25 1010.37 1010.46 1010.55 1010.68 1010.86
1012.07 1012.55 1012.96 1013.34 1013.68 1014.01 1014.33 1014.62 1014.84 1014.96 1014.94 1014.76 1014.39 1013.86 1013.20 1012.46 1011.70 1010.98 1010.34 1009.80 1009.38 1009.04 1008.78 1008.56 1008.37 1008.19 1008.03 1007.90 1007.83 1007.84 1007.93 1008.12 1008.37 1008.67 1008.99 1009.28 1009.52 1009.69 1009.80 1009.87 1009.92 1009.98 1010.08 1010.24
1012.22 1012.77 1013.22 1013.56 1013.82 1013.99 1014.10 1014.16 1014.17 1014.13 1014.03 1013.85 1013.60 1013.28 1012.89 1012.44 1011.97 1011.50 1011.02 1010.56 1010.12 1009.70 1009.29 1008.91 1008.55 1008.23 1007.97 1007.79 1007.71 1007.73 1007.85 1008.06 1008.33 1008.61 1008.88 1009.11 1009.27 1009.37 1009.41 1009.41 1009.41 1009.43 1009.50 1009.63
1012.61 1013.18 1013.62 1013.92 1014.07 1014.10 1014.04 1013.91 1013.76 1013.59 1013.42 1013.25 1013.09 1012.92 1012.73 1012.51 1012.25 1011.93 1011.57 1011.14 1010.67 1010.15 1009.62 1009.09 1008.61 1008.19 1007.87 1007.66 1007.59 1007.65 1007.81 1008.05 1008.32 1008.59 1008.82 1008.98 1009.07 1009.08 1009.05 1008.98 1008.93 1008.91 1008.95 1009.05
1013.19 1013.74 1014.13 1014.35 1014.41 1014.32 1014.12 1013.86 1013.59 1013.33 1013.11 1012.95 1012.85 1012.78 1012.72 1012.65 1012.51 1012.30 1011.98 1011.56 1011.04 1010.44 1009.80 1009.18 1008.60 1008.12 1007.77 1007.57 1007.52 1007.61 1007.81 1008.07 1008.35 1008.60 1008.78 1008.89 1008.90 1008.84 1008.74 1008.62 1008.52 1008.46 1008.46 1008.54
1013.85 1014.32 1014.64 1014.78 1014.75 1014.57 1014.28 1013.94 1013.59 1013.28 1013.04 1012.89 1012.82 1012.82 1012.84 1012.83 1012.76 1012.59 1012.29 1011.85 1011.29 1010.63 1009.93 1009.23 1008.61 1008.10 1007.74 1007.55 1007.53 1007.65 1007.87 1008.14 1008.41 1008.63 1008.78 1008.83 1008.78 1008.67 1008.51 1008.34 1008.21 1008.13 1008.11 1008.16
1014.45 1014.81 1015.03 1015.08 1014.98 1014.74 1014.41 1014.03 1013.66 1013.34 1013.10 1012.96 1012.92 1012.95 1013.00 1013.03 1012.99 1012.83 1012.53 1012.08 1011.49 1010.80 1010.07 1009.35 1008.70 1008.19 1007.83 1007.65 1007.64 1007.77 1007.99 1008.26 1008.50 1008.69 1008.80 1008.81 1008.72 1008.57 1008.39 1008.21 1008.06 1007.96 1007.93 1007.96
1014.86 1015.10 1015.22 1015.19 1015.04 1014.77 1014.43 1014.06 1013.70 1013.40 1013.19 1013.07 1013.04 1013.09 1013.15 1013.20 1013.16 1013.01 1012.71 1012.26 1011.68 1011.00 1010.27 1009.56 1008.92 1008.41 1008.06 1007.88 1007.86 1007.97 1008.17 1008.41 1008.62 1008.78 1008.85 1008.84 1008.74 1008.59 1008.41 1008.23 1008.09 1008.00 1007.97 1007.99
1015.02 1015.14 1015.15 1015.07 1014.88 1014.62 1014.30 1013.97 1013.66 1013.40 1013.22 1013.13 1013.13 1013.18 1013.25 1013.29 1013.27 1013.13 1012.85 1012.43 1011.88 1011.24 1010.55 1009.87 1009.26 1008.76 1008.41 1008.21 1008.16 1008.23 1008.39 1008.57 1008.74 1008.87 1008.93 1008.92 1008.84 1008.71 1008.56 1008.42 1008.31 1008.24 1008.22 1008.24
1014.91 1014.92 1014.86 1014.73 1014.54 1014.30 1014.03 1013.76 1013.51 1013.31 1013.18 1013.12 1013.13 1013.19 1013.26 1013.31 1013.29 1013.18 1012.94 1012.58 1012.09 1011.51 1010.88 1010.26 1009.68 1009.19 1008.83 1008.60 1008.50 1008.51 1008.60 1008.72 1008.86 1008.96 1009.02 1009.03 1008.99 1008.92 1008.83 1008.75 1008.69 1008.66 1008.66 1008.68
1014.59 1014.51 1014.40 1014.25 1014.08 1013.88 1013.68 1013.48 1013.30 1013.16 1013.07 1013.04 1013.06 1013.12 1013.19 1013.24 1013.25 1013.17 1012.98 1012.69 1012.28 1011.78 1011.23 1010.66 1010.12 1009.64 1009.25 1008.98 1008.81 1008.75 1008.76 1008.83 1008.93 1009.02 1009.09 1009.14 1009.17 1009.17 1009.17 1009.16 1009.17 1009.18 1009.21 1009.24
1014.14 1014.01 1013.87 1013.74 1013.60 1013.46 1013.33 1013.20 1013.09 1013.00 1012.94 1012.93 1012.95 1013.00 1013.07 1013.13 1013.15 1013.10 1012.97 1012.75 1012.43 1012.02 1011.54 1011.03 1010.52 1010.04 1009.63 1009.30 1009.06 1008.92 1008.86 1008.87 1008.93 1009.02 1009.12 1009.22 1009.32 1009.41 1009.49 1009.57 1009.64 1009.71 1009.77 1009.81
1013.68 1013.53 1013.39 1013.28 1013.19 1013.12 1013.05 1012.99 1012.94 1012.89 1012.86 1012.85 1012.86 1012.89 1012.94 1012.99 1013.02 1013.00 1012.92 1012.76 1012.52 1012.18 1011.78 1011.31 1010.83 1010.35 1009.90 1009.51 1009.21 1008.99 1008.86 1008.82 1008.84 1008.93 1009.06 1009.21 1009.38 1009.55 1009.72 1009.87 1010.01 1010.13 1010.22 1010.29
Thickness
5805 5788 5780 5789 5797 5799 5801 5798 5797 5812 5832 5823 5812 5810 5815 5821 5821 5818 5816 5815 5813 5815 5817 5816 5814 5810 5806 5802 5797 5794 5789 5787 5783 5779 5774 5770 5767 5767 5766 5765 5764 5763 5761 5760
5780 5776 5795 5803 5805 5803 5799 5793 5796 5810 5827 5819 5806 5806 5815 5819 5820 5822 5820 5817 5816 5814 5814 5814 5812 5810 5807 5803 5799 5795 5792 5788 5785 5782 5778 5774 5770 5768 5767 5766 5765 5763 5762 5760
5768 5785 5803 5800 5796 5794 5795 5793 5796 5799 5812 5815 5802 5789 5800 5813 5820 5822 5823 5822 5821 5820 5817 5815 5813 5811 5808 5805 5802 5800 5794 5791 5788 5784 5780 5775 5771 5768 5765 5764 5763 5763 5762 5760
5772 5792 5797 5792 5792 5794 5783 5808 5810 5805 5790 5777 5790 5759 5782 5800 5806 5813 5817 5820 5822 5823 5822 5819 5816 5812 5810 5809 5807 5803 5798 5793 5790 5786 5781 5774 5769 5764 5765 5765 5764 5763 5762 5760
5769 5789 5789 5786 5796 5802 5798 5815 5811 5804 5788 5773 5777 5762 5772 5792 5792 5805 5816 5823 5825 5826 5825 5822 5820 5818 5815 5812 5808 5804 5799 5795 5791 5787 5783 5777 5772 5769 5768 5766 5764 5763 5762 5761
5775 5794 5795 5797 5808 5811 5811 5804 5795 5779 5766 5749 5767 5762 5763 5785 5799 5810 5820 5826 5828 5830 5829 5826 5825 5820 5816 5813 5809 5804 5799 5795 5792 5788 5784 5780 5774 5771 5767 5765 5763 5762 5761 5761
5761 5779 5795 5805 5794 5799 5796 5763 5740 5739 5729 5738 5766 5765 5768 5805 5820 5823 5824 5828 5831 5832 5828 5824 5821 5818 5815 5812 5810 5804 5799 5794 5792 5789 5785 5782 5777 5774 5770 5767 5764 5761 5759 5759
5737 5745 5780 5795 5789 5780 5779 5761 5732 5723 5724 5737 5762 5761 5785 5818 5828 5832 5833 5832 5831 5829 5828 5826 5825 5822 5818 5814 5810 5805 5800 5796 5793 5790 5786 5783 5780 5776 5773 5770 5767 5764 5762 5761
5733 5742 5783 5797 5802 5791 5774 5760 5761 5739 5740 5736 5746 5767 5792 5813 5818 5821 5823 5824 5824 5826 5827 5826 5825 5822 5819 5814 5810 5807 5802 5798 5795 5792 5787 5783 5781 5777 5774 5772 5769 5766 5764 5762
5749 5743 5769 5789 5795 5792 5785 5773 5746 5733 5720 5720 5739 5754 5762 5787 5798 5809 5813 5816 5820 5824 5824 5823 5822 5820 5818 5817 5813 5808 5804 5800 5797 5793 5789 5786 5782 5779 5776 5772 5769 5766 5765 5763
5751 5737 5748 5765 5764 5764 5772 5766 5746 5730 5728 5718 5720 5740 5785 5790 5799 5804 5810 5814 5817 5819 5820 5819 5819 5818 5818 5816 5812 5807 5803 5799 5795 5793 5789 5786 5783 5779 5776 5772 5770 5768 5766 5763
5747 5729 5725 5745 5771 5782 5772 5763 5745 5728 5726 5725 5721 5739 5793 5798 5803 5806 5808 5810 5813 5816 5817 5816 5815 5813 5812 5810 5809 5806 5802 5798 5796 5793 5789 5786 5782 5778 5775 5772 5770 5768 5765 5763
5743 5723 5710 5720 5739 5759 5762 5763 5754 5740 5728 5720 5719 5740 5787 5793 5796 5801 5802 5805 5805 5806 5807 5807 5807 5807 5807 5806 5805 5804 5803 5800 5796 5792 5787 5783 5780 5777 5774 5771 5769 5766 5763 5761
5750 5721 5711 5708 5720 5738 5746 5756 5756 5739 5722 5724 5732 5746 5766 5777 5782 5788 5793 5796 5797 5798 5797 5797 5798 5801 5802 5802 5802 5801 5800 5799 5795 5790 5785 5781 5778 5776 5774 5771 5768 5764 5761 5758
5738 5718 5724 5730 5742 5747 5747 5751 5754 5746 5739 5734 5742 5750 5761 5772 5777 5783 5788 5790 5790 5789 5789 5790 5790 5793 5796 5797 5798 5799 5797 5795 5793 5787 5783 5779 5777 5775 5772 5769 5765 5762 5759 5756
5723 5716 5719 5722 5737 5741 5741 5748 5752 5752 5752 5748 5750 5751 5767 5772 5776 5778 5780 5782 5780 5782 5783 5786 5787 5788 5791 5792 5793 5793 5792 5791 5788 5783 5780 5777 5774 5771 5769 5766 5762 5759 5756 5752
5708 5707 5699 5700 5720 5728 5719 5737 5745 5748 5754 5752 5742 5748 5761 5763 5766 5769 5772 5774 5773 5775 5777 5778 5780 5783 5786 5788 5789 5787 5787 5787 5783 5780 5777 5774 5771 5767 5765 5762 5758 5754 5751 5748
5703 5695 5686 5689 5702 5695 5715 5745 5751 5746 5747 5753 5752 5753 5757 5759 5761 5766 5768 5768 5766 5768 5771 5772 5773 5775 5778 5782 5783 5784 5783 5780 5777 5775 5773 5771 5768 5764 5761 5757 5753 5750 5746 5742
5706 5695 5682 5676 5680 5693 5719 5737 5741 5735 5729 5744 5745 5747 5751 5755 5755 5752 5760 5763 5761 5762 5764 5766 5768 5768 5770 5772 5774 5774 5773 5773 5771 5770 5769 5766 5764 5760 5756 5752 5748 5745 5741 5736
5696 5692 5679 5674 5676 5678 5704 5733 5746 5737 5715 5736 5741 5741 5744 5746 5731 5733 5749 5753 5755 5756 5757 5758 5761 5762 5762 5764 5766 5765 5763 5764 5764 5765 5764 5762 5758 5755 5751 5747 5743 5740 5736 5730
5674 5674 5669 5668 5670 5682 5713 5731 5737 5708 5708 5731 5737 5739 5740 5735 5733 5736 5742 5744 5746 5747 5749 5751 5752 5751 5752 5756 5758 5755 5755 5754 5757 5759 5758 5755 5752 5749 5745 5741 5737 5732 5728 5723
5664 5661 5661 5660 5661 5673 5713 5720 5712 5710 5724 5728 5731 5733 5732 5730 5732 5732 5733 5734 5736 5738 5739 5741 5740 5740 5744 5747 5748 5746 5744 5746 5749 5750 5749 5747 5744 5741 5737 5732 5727 5724 5720 5714
5664 5667 5666 5667 5672 5692 5707 5711 5716 5719 5719 5722 5722 5724 5726 5723 5722 5722 5723 5724 5726 5727 5728 5731 5731 5730 5733 5736 5738 5735 5735 5738 5740 5739 5738 5736 5733 5729 5726 5722 5716 5713 5710 5705
5663 5672 5669 5670 5679 5691 5699 5706 5710 5713 5714 5716 5717 5718 5719 5716 5715 5714 5714 5715 5716 5717 5718 5719 5721 5721 5722 5725 5727 5728 5729 5729 5729 5727 5725 5724 5720 5716 5713 5710 5707 5703 5699 5694
5654 5661 5660 5663 5673 5681 5688 5695 5700 5704 5706 5708 5709 5710 5710 5709 5707 5707 5705 5705 5706 5708 5709 5710 5711 5711 5711 5712 5715 5719 5720 5720 5718 5715 5713 5711 5708 5705 5701 5696 5693 5691 5687 5684
5649 5652 5653 5654 5666 5669 5674 5684 5691 5694 5694 5697 5698 5698 5700 5701 5700 5699 5697 5697 5698 5699 5700 5701 5702 5702 5703 5704 5705 5707 5709 5710 5708 5704 5702 5699 5697 5693 5689 5685 5679 5676 5676 5673